Location: McFarlands Corners
(41.4117°N, 81.3382°W)
Time: 15:33:58
(UTC+00:00)

Transit 2A - Pass Details

Date: 23 February 2026
Orbit: 590 x 954 km, 66.7° (Epoch: 7 March)

Event Time Altitude Azimuth Distance (km) Brightness Sun altitude
Rises 02:13:22 0° 325° (NW) 3,529 10.1 -35.1°
Reaches altitude 10° 02:16:01 10° 322° (NW) 2,539 9.3 -35.6°
Enters shadow 02:19:42 36° 301° (WNW) 1,315 7.5 -36.2°
